Location: Maddington
(51.2000°N, 1.9167°W)
Time: 16:37:41
(UTC+00:00)

Cosmos 1125 Rocket - Pass Details

Date: 27 June 2021
Orbit: 757 x 780 km, 74.0° (Epoch: 28 July)

Event Time Altitude Azimuth Distance (km) Brightness Sun altitude
Rises 00:07:57 0° 338° (NNW) 3,249 8.1 -15.5°
Reaches altitude 10° 00:10:30 10° 346° (NNW) 2,323 7.3 -15.5°
Maximum altitude 00:15:26 39° 55° (NE) 1,158 4.7 -15.5°
Drops below altitude 10° 00:20:21 10° 124° (SE) 2,323 5.7 -15.4°
Enters shadow 00:21:12 - 127° (SE) 2,628 5.9 -15.4°
